Wind_Speed
10 12 14 16 13 14 17 20 24 18 15 20 26 25 22 23 26 10 4 4 4 9 14 17 16 16 18 17 16 13 12 11 11 14 14 13 13 12 12 12 12 11 10 10 10 10 10 11 12
11 11 14 15 15 21 19 24 26 28 21 22 21 27 30 30 24 21 19 12 11 8 15 17 16 18 18 18 17 14 13 12 13 15 14 14 12 12 12 12 11 10 10 10 10 10 10 11 12
13 12 14 11 19 30 24 24 27 24 31 26 26 24 24 22 27 27 20 22 16 11 16 17 18 18 19 18 17 15 14 14 15 15 15 14 13 12 12 11 11 10 10 10 10 9 10 11 12
13 14 14 18 27 25 26 19 24 22 27 34 36 32 28 24 21 25 25 24 19 12 15 18 18 19 19 18 18 16 15 15 17 17 16 15 14 13 12 11 10 10 9 9 9 9 10 11 11
12 14 15 22 28 29 27 28 26 25 27 28 36 43 36 28 19 24 25 27 24 15 15 19 20 20 18 18 18 17 16 16 17 17 17 16 14 13 12 11 10 9 9 9 9 8 9 10 11
11 12 15 23 27 27 26 26 26 24 28 35 27 33 43 39 29 19 20 25 27 20 18 21 23 22 19 19 18 18 17 17 18 18 18 17 15 14 13 12 10 9 8 8 7 7 8 9 10
11 13 18 21 25 27 27 24 24 26 32 31 32 29 32 40 37 29 20 29 30 25 21 23 24 24 22 20 20 19 19 19 19 20 19 18 16 15 13 12 11 9 8 7 6 6 6 8 8
11 13 17 19 20 26 21 19 22 26 28 34 31 31 29 31 29 30 26 32 33 28 26 25 25 25 24 22 21 21 20 20 20 20 20 18 17 15 14 13 11 9 8 7 6 5 5 5 7
13 13 17 19 20 21 20 19 18 27 31 29 26 32 30 30 29 30 29 33 37 33 29 27 26 26 24 22 22 21 22 21 21 21 21 20 18 16 14 13 11 9 7 6 5 3 3 4 5
13 19 17 18 21 24 22 22 22 27 32 33 27 26 31 36 28 27 37 34 36 35 30 28 28 28 27 25 23 23 22 21 21 21 21 20 19 17 16 14 12 10 9 7 5 3 2 1 2
17 19 21 22 22 23 26 25 24 27 30 27 27 22 26 33 34 30 29 31 32 34 32 31 31 31 28 25 24 23 23 23 22 22 22 21 20 19 17 16 14 11 10 8 6 4 2 2 1
22 18 20 21 20 23 24 26 26 24 26 22 24 26 26 31 32 36 32 37 36 35 32 32 32 32 30 27 25 24 24 23 22 22 22 22 21 19 18 16 14 13 11 9 7 6 4 4 4
18 22 20 21 20 20 21 24 25 25 19 16 19 25 25 27 27 30 36 29 39 38 31 32 34 34 31 28 26 26 25 23 23 23 23 23 21 20 19 17 15 13 12 10 8 7 7 5 5
24 22 18 18 15 17 18 20 23 19 19 16 18 28 24 24 20 27 34 37 46 42 34 30 34 36 34 30 27 27 26 25 24 24 24 23 21 20 19 18 16 14 12 11 9 9 8 7 6
22 20 13 13 13 16 19 19 19 15 12 12 15 25 26 22 23 22 32 39 45 42 33 32 35 38 36 32 30 29 28 26 25 24 23 23 21 20 19 18 16 14 13 12 10 9 9 8 8
20 13 23 20 11 17 18 29 18 18 13 13 12 22 30 27 21 23 25 40 30 32 32 33 36 38 37 33 30 30 29 27 26 24 23 23 21 20 19 17 16 15 13 11 10 9 9 8 9
17 22 23 18 16 19 24 36 21 21 20 19 16 19 31 31 27 24 19 22 28 36 37 43 39 39 37 34 33 32 30 28 28 26 25 23 22 20 19 17 16 14 13 12 11 9 9 9 10
18 24 24 24 22 19 28 34 26 19 22 20 18 18 26 34 30 28 26 23 22 28 27 39 46 40 37 35 35 34 33 32 29 27 26 25 23 21 20 18 17 15 14 12 11 11 10 10 11
18 21 24 22 10 29 31 29 18 12 13 16 14 14 16 26 31 28 29 20 20 19 30 31 34 38 38 38 36 35 34 33 31 30 28 26 24 23 22 20 18 16 15 14 14 13 12 12 13
18 21 22 16 25 30 26 17 13 13 10 5 11 14 16 17 26 34 32 31 29 27 22 26 41 40 26 43 39 35 34 34 32 30 29 28 27 26 24 22 20 19 18 17 16 13 13 13 14
18 20 18 22 30 26 22 7 11 12 11 13 12 5 11 16 18 22 34 35 31 33 28 27 24 28 33 27 39 36 35 34 32 31 30 30 29 27 26 24 22 21 19 18 17 14 13 13 14
20 14 18 23 25 13 22 8 5 10 13 15 15 14 10 10 15 17 25 33 37 32 28 24 17 17 28 21 38 39 37 34 33 32 32 31 30 29 27 26 24 23 21 18 16 15 15 15 17
14 17 22 22 21 15 6 5 14 7 15 15 19 14 14 13 14 17 20 25 30 32 28 26 21 18 17 26 21 45 43 36 34 34 33 32 31 31 29 28 26 24 22 21 19 20 19 21 22
16 17 20 11 7 2 3 4 10 13 19 17 20 16 15 14 11 13 16 23 26 28 31 31 24 21 21 16 22 34 37 39 38 35 33 33 33 32 30 29 28 26 25 24 21 20 21 22 22
10 12 5 4 2 3 6 9 7 21 15 13 20 21 13 13 14 13 15 20 21 22 28 30 27 22 19 20 23 24 32 53 44 38 36 35 33 32 31 31 31 29 27 25 24 24 23 22 23
13 9 4 4 2 5 15 6 9 9 15 16 17 22 22 16 14 15 19 20 21 24 26 31 29 26 24 23 19 18 35 41 38 45 40 37 34 33 33 34 35 32 32 30 27 24 22 24 22
4 4 5 5 6 2 5 7 13 16 19 13 15 19 30 25 17 16 17 24 26 25 24 28 32 30 26 24 23 27 32 20 31 49 44 42 38 37 39 38 37 36 31 30 28 19 20 22 21
12 10 5 5 3 4 6 8 11 11 19 18 15 25 38 30 21 17 17 17 29 27 24 28 32 32 29 30 31 27 21 30 32 36 52 47 43 45 39 38 41 38 38 31 25 16 23 21 20
13 14 9 6 6 3 4 7 12 25 10 23 27 38 36 27 19 15 19 17 24 27 25 24 29 33 33 31 32 35 38 32 34 41 55 49 45 40 44 45 36 29 22 16 17 19 20 21 22
22 16 13 7 4 7 6 25 13 9 23 41 41 36 30 28 21 14 15 20 20 27 27 29 27 33 35 32 26 37 31 34 32 42 44 45 41 36 36 35 28 23 23 20 20 20 21 21 23
Wind_Direction
286 279 271 262 242 234 240 239 237 244 254 252 242 245 257 253 243 238 261 262 272 254 228 225 224 213 205 199 198 197 193 194 188 178 172 164 158 151 143 140 134 123 109 97 86 77 70 62 54
295 278 270 263 241 241 252 255 245 242 239 247 253 239 244 246 239 242 241 275 289 268 229 220 221 209 203 200 204 195 198 193 187 178 174 168 163 157 152 145 134 121 109 97 86 79 70 62 56
289 281 267 254 249 248 255 258 258 241 233 229 237 237 237 246 245 238 244 246 261 276 223 218 215 206 203 204 206 200 197 193 189 182 177 173 170 164 158 149 138 125 112 100 92 82 72 65 58
296 283 264 254 258 262 266 262 258 249 242 233 236 232 239 240 242 229 234 236 246 247 223 215 212 209 210 204 205 203 197 195 192 188 182 177 175 169 165 155 144 131 121 110 99 87 78 70 61
299 286 269 263 267 268 268 268 260 252 244 232 234 237 239 238 239 228 228 229 235 228 217 213 211 213 214 205 205 203 200 197 196 191 188 181 178 175 171 162 150 140 129 114 103 92 80 71 63
301 284 270 270 276 277 272 270 264 255 255 245 248 240 234 238 239 238 234 222 225 222 211 212 210 212 213 210 205 205 202 199 199 195 191 188 182 180 174 167 156 148 135 120 111 95 82 73 63
297 284 274 279 285 285 283 275 269 260 251 253 252 256 235 235 239 238 234 216 218 222 210 215 213 214 210 212 207 206 203 201 201 199 194 192 187 184 179 173 165 158 145 132 120 96 78 70 63
299 290 284 291 296 294 301 283 261 255 249 251 256 257 242 231 231 227 225 217 214 217 210 215 216 215 214 213 212 207 206 202 202 201 197 196 190 188 184 181 174 167 158 147 132 111 85 66 55
303 286 292 297 299 295 301 288 264 250 252 247 243 247 244 233 227 226 219 217 213 212 212 213 216 213 214 214 213 211 208 204 203 202 200 197 193 190 187 186 183 176 168 166 150 132 87 53 45
308 296 301 299 293 293 285 279 274 263 249 249 242 237 247 239 231 232 222 220 214 215 214 214 211 212 213 214 212 212 209 206 203 203 203 198 195 192 191 189 188 185 181 184 177 177 148 74 28
315 309 309 305 289 286 285 280 278 272 261 258 248 227 242 249 234 232 229 225 220 217 219 215 211 211 213 215 214 210 208 208 204 204 203 200 197 195 192 192 191 192 192 195 199 203 208 244 296
313 324 312 317 303 274 280 285 282 276 275 271 244 229 233 247 245 230 229 221 217 220 224 217 212 211 211 210 214 210 210 207 205 203 205 202 198 198 195 193 194 195 199 205 210 224 229 251 277
322 321 314 310 306 292 279 282 289 279 291 274 248 222 229 241 246 228 231 233 222 217 221 219 214 211 211 211 211 210 209 205 206 203 205 203 200 199 198 195 197 198 202 208 216 227 245 252 273
331 323 322 320 306 302 291 290 282 306 294 278 257 220 226 237 246 229 226 233 233 219 217 219 216 212 211 210 211 211 208 206 205 202 202 205 201 200 199 197 198 198 204 211 217 229 242 251 262
333 330 341 335 311 311 303 292 294 310 275 277 258 226 222 234 241 243 233 234 230 223 224 223 217 213 211 211 208 210 207 205 203 203 204 203 201 201 204 197 200 200 204 212 217 232 243 252 263
340 335 340 339 314 313 299 297 299 298 280 258 258 232 221 227 233 243 231 240 213 232 232 220 217 214 212 211 211 211 208 203 203 202 203 204 202 200 205 205 204 206 209 213 222 232 250 258 267
337 326 331 342 338 320 304 304 316 291 281 273 239 237 226 226 230 240 245 234 246 221 225 228 214 209 210 210 211 211 211 207 203 201 202 204 203 205 207 209 210 212 213 217 223 229 242 256 263
321 322 322 330 329 312 312 307 318 298 271 267 243 233 230 227 231 236 248 243 237 233 242 208 200 201 208 211 211 210 209 209 207 204 204 205 205 207 209 212 212 217 221 224 232 237 243 250 260
316 315 316 334 340 324 329 328 360 324 269 266 236 229 240 233 230 233 238 244 249 257 239 207 227 199 203 211 212 211 212 212 209 209 207 207 207 209 211 215 217 219 226 231 234 240 246 253 258
310 313 327 334 331 326 331 342 24 20 6 319 259 251 243 236 230 232 236 235 241 256 263 255 270 251 248 203 211 209 214 213 211 210 212 212 211 212 213 214 219 222 221 232 237 238 246 255 261
304 305 320 318 330 333 331 356 21 27 26 15 8 300 262 252 245 237 239 240 236 242 253 265 274 279 279 226 213 209 209 215 215 213 214 217 216 215 215 217 219 224 224 228 232 233 240 250 260
299 307 316 318 324 321 323 294 11 20 24 23 2 353 324 276 242 238 239 238 241 243 243 246 255 257 282 276 209 213 212 214 215 217 219 219 220 220 220 219 219 222 225 225 228 241 255 263 265
296 305 311 307 308 313 320 301 340 358 359 356 5 336 319 307 271 248 233 236 239 239 241 238 236 246 243 265 251 231 222 213 214 219 220 222 222 223 222 222 221 219 222 226 238 250 260 265 262
294 303 306 300 301 299 306 0 298 360 343 341 354 346 316 314 308 272 245 231 230 234 235 237 231 231 224 240 258 232 219 217 215 217 220 223 224 226 225 226 223 222 227 236 242 253 259 257 253
301 313 315 332 343 246 303 304 279 350 348 352 355 1 336 314 309 295 271 246 229 228 228 225 225 222 224 224 255 234 218 223 212 216 218 221 225 227 227 228 228 229 233 237 243 250 250 252 253
296 291 259 268 277 294 293 237 328 354 10 354 0 2 357 333 315 296 275 253 232 230 229 226 223 218 220 232 238 242 203 234 241 220 216 219 222 224 227 227 230 231 237 238 236 237 244 251 251
277 256 272 270 276 303 258 280 351 334 338 343 337 337 342 343 314 302 288 245 231 235 237 240 233 225 230 235 230 214 212 216 234 234 210 216 219 222 223 226 232 231 236 230 227 229 250 254 259
266 275 260 240 289 275 269 271 261 13 8 354 319 327 329 327 326 300 293 258 232 232 246 231 228 228 230 231 227 228 212 211 216 227 216 211 216 222 223 234 233 240 236 233 231 234 245 253 264
282 254 236 236 237 233 298 244 282 310 334 332 327 323 329 318 301 306 276 274 233 229 237 233 228 226 223 227 222 232 232 220 215 219 217 209 216 224 237 236 234 230 227 233 233 243 253 261 269
271 264 254 229 229 234 268 278 305 294 312 319 329 330 328 316 295 277 269 254 243 233 234 238 235 229 223 220 223 212 216 213 227 220 218 225 219 213 224 229 212 221 222 224 233 242 252 263 271
Height
3117 3117 3118 3120 3126 3118 3115 3117 3121 3127 3130 3129 3130 3132 3133 3133 3135 3139 3135 3136 3136 3136 3138 3139 3140 3141 3143 3145 3147 3149 3151 3153 3155 3157 3159 3161 3163 3164 3165 3166 3167 3168 3168 3169 3169 3169 3169 3169 3169
3114 3115 3116 3115 3118 3114 3113 3115 3118 3123 3126 3127 3127 3127 3127 3127 3128 3131 3133 3134 3135 3135 3136 3137 3139 3140 3142 3144 3146 3148 3150 3152 3154 3156 3158 3160 3162 3164 3165 3166 3167 3168 3169 3169 3170 3169 3169 3169 3169
3111 3112 3112 3112 3110 3109 3109 3111 3115 3117 3118 3120 3121 3122 3121 3122 3125 3127 3130 3132 3133 3133 3134 3136 3137 3139 3141 3142 3145 3147 3149 3151 3153 3155 3157 3160 3162 3164 3165 3166 3167 3168 3169 3169 3170 3170 3170 3169 3169
3106 3108 3109 3106 3103 3104 3105 3109 3109 3111 3114 3113 3112 3115 3116 3118 3120 3123 3125 3128 3130 3131 3132 3134 3135 3138 3139 3140 3143 3146 3148 3150 3152 3155 3157 3159 3162 3163 3165 3166 3167 3168 3169 3170 3170 3170 3170 3170 3170
3103 3103 3103 3100 3099 3099 3102 3104 3104 3107 3106 3106 3106 3107 3109 3113 3116 3117 3120 3124 3127 3128 3129 3131 3133 3136 3138 3139 3141 3144 3146 3149 3151 3153 3156 3158 3161 3163 3165 3167 3168 3169 3170 3170 3170 3170 3170 3170 3170
3100 3100 3099 3097 3097 3097 3098 3099 3099 3100 3100 3101 3102 3099 3104 3109 3112 3113 3115 3118 3122 3124 3125 3128 3130 3133 3135 3137 3139 3142 3144 3147 3150 3152 3155 3158 3160 3162 3164 3166 3168 3169 3170 3171 3171 3171 3170 3170 3170
3098 3097 3095 3094 3093 3093 3094 3095 3094 3094 3094 3095 3097 3095 3099 3103 3105 3108 3110 3113 3117 3119 3122 3125 3126 3130 3132 3135 3137 3140 3142 3145 3148 3151 3154 3157 3159 3161 3163 3165 3167 3169 3169 3170 3171 3171 3171 3171 3170
3096 3095 3092 3090 3089 3087 3089 3088 3088 3087 3087 3089 3091 3091 3094 3095 3098 3102 3104 3107 3111 3114 3117 3120 3123 3126 3129 3132 3135 3137 3140 3143 3146 3150 3153 3156 3158 3160 3163 3165 3166 3168 3169 3170 3170 3170 3171 3171 3170
3095 3093 3089 3088 3086 3084 3085 3083 3083 3081 3079 3082 3084 3087 3089 3088 3092 3095 3097 3100 3104 3109 3112 3116 3120 3123 3127 3130 3133 3135 3138 3141 3145 3148 3151 3154 3156 3159 3161 3163 3165 3166 3168 3169 3169 3170 3170 3171 3170
3093 3091 3088 3086 3083 3080 3079 3078 3078 3076 3075 3074 3077 3081 3084 3082 3087 3089 3091 3096 3101 3104 3108 3111 3115 3119 3123 3126 3129 3133 3136 3139 3142 3146 3150 3152 3154 3157 3159 3161 3163 3165 3166 3167 3168 3169 3169 3170 3170
3088 3087 3085 3083 3080 3076 3073 3072 3073 3070 3068 3071 3073 3075 3078 3077 3079 3083 3083 3091 3098 3100 3103 3107 3110 3115 3120 3124 3126 3129 3133 3136 3139 3143 3147 3150 3152 3155 3157 3159 3161 3163 3165 3166 3167 3167 3168 3169 3169
3085 3084 3081 3078 3075 3072 3070 3067 3066 3065 3063 3065 3067 3071 3072 3072 3072 3076 3080 3084 3087 3094 3099 3102 3106 3111 3116 3119 3123 3127 3130 3133 3137 3140 3144 3147 3150 3152 3155 3157 3159 3161 3163 3165 3165 3166 3167 3167 3168
3082 3079 3077 3074 3071 3068 3065 3062 3061 3058 3061 3060 3060 3063 3065 3066 3067 3069 3073 3073 3071 3086 3091 3097 3102 3107 3112 3116 3120 3124 3127 3130 3134 3137 3141 3144 3147 3150 3153 3155 3157 3159 3161 3163 3164 3165 3165 3165 3166
3079 3075 3073 3070 3067 3065 3061 3059 3056 3057 3055 3055 3055 3057 3060 3061 3062 3063 3067 3069 3066 3076 3085 3090 3097 3103 3108 3112 3116 3121 3124 3127 3131 3134 3137 3142 3144 3148 3151 3153 3155 3157 3159 3161 3162 3163 3163 3163 3163
3076 3072 3071 3067 3066 3063 3059 3056 3053 3052 3049 3049 3049 3052 3054 3056 3057 3059 3063 3063 3070 3061 3079 3084 3091 3097 3103 3108 3112 3117 3120 3124 3128 3131 3135 3139 3142 3145 3149 3150 3152 3154 3156 3157 3159 3160 3161 3161 3161
3074 3070 3066 3066 3063 3061 3057 3048 3049 3048 3046 3044 3044 3046 3049 3051 3052 3055 3060 3053 3052 3062 3069 3079 3085 3092 3098 3104 3108 3113 3117 3120 3125 3128 3132 3136 3139 3142 3146 3148 3150 3152 3153 3155 3157 3158 3159 3159 3159
3073 3069 3066 3063 3061 3058 3055 3043 3044 3044 3040 3039 3038 3040 3043 3046 3047 3050 3056 3059 3058 3061 3066 3066 3077 3086 3092 3097 3103 3108 3114 3117 3121 3124 3129 3133 3136 3139 3142 3145 3147 3149 3151 3152 3153 3154 3156 3156 3156
3072 3068 3064 3061 3059 3053 3049 3039 3036 3035 3032 3032 3033 3033 3037 3041 3044 3046 3047 3050 3052 3045 3054 3054 3059 3076 3084 3091 3097 3103 3108 3114 3118 3121 3125 3129 3132 3135 3138 3141 3144 3146 3148 3150 3151 3151 3152 3153 3153
3071 3067 3062 3059 3056 3048 3042 3035 3030 3026 3026 3026 3028 3029 3031 3035 3041 3042 3044 3045 3046 3048 3052 3053 3060 3068 3076 3085 3091 3097 3105 3109 3113 3117 3121 3125 3128 3131 3134 3137 3140 3142 3145 3146 3147 3148 3148 3149 3149
3068 3064 3060 3055 3053 3047 3038 3032 3030 3027 3025 3025 3025 3026 3027 3030 3033 3038 3040 3043 3046 3049 3051 3055 3053 3057 3064 3076 3086 3092 3099 3104 3108 3112 3117 3121 3124 3126 3129 3132 3135 3138 3140 3142 3143 3144 3145 3145 3145
3066 3062 3058 3055 3048 3044 3038 3031 3030 3028 3025 3024 3024 3024 3024 3026 3029 3031 3034 3039 3043 3044 3049 3050 3047 3054 3063 3069 3082 3086 3091 3098 3104 3109 3113 3116 3119 3122 3125 3127 3130 3133 3136 3137 3138 3139 3140 3140 3141
3061 3060 3056 3052 3049 3046 3042 3036 3028 3027 3026 3024 3022 3022 3022 3022 3023 3025 3027 3031 3036 3040 3043 3043 3044 3050 3051 3059 3070 3080 3085 3092 3099 3104 3107 3111 3114 3118 3120 3123 3125 3128 3131 3133 3134 3135 3136 3137 3137
3061 3057 3054 3050 3047 3044 3042 3040 3027 3026 3025 3024 3023 3020 3018 3019 3019 3020 3021 3024 3029 3033 3037 3042 3044 3045 3050 3054 3065 3075 3080 3087 3093 3096 3100 3105 3109 3113 3115 3118 3121 3123 3126 3128 3129 3130 3131 3132 3132
3058 3055 3051 3047 3045 3044 3040 3041 3027 3026 3024 3022 3021 3019 3016 3016 3016 3017 3018 3019 3023 3026 3030 3035 3040 3044 3048 3050 3055 3067 3074 3081 3085 3088 3094 3099 3103 3107 3111 3114 3116 3118 3120 3122 3124 3125 3126 3126 3127
3056 3055 3050 3049 3046 3041 3037 3037 3025 3025 3023 3021 3019 3018 3016 3015 3015 3014 3015 3015 3019 3021 3025 3030 3033 3037 3041 3044 3048 3060 3060 3070 3076 3081 3087 3091 3096 3101 3105 3108 3111 3113 3115 3116 3118 3119 3120 3121 3122
3053 3054 3054 3053 3048 3042 3036 3033 3026 3024 3023 3021 3018 3017 3016 3015 3014 3012 3012 3012 3014 3017 3020 3024 3028 3034 3037 3039 3041 3047 3055 3066 3068 3075 3079 3085 3090 3094 3098 3101 3104 3106 3108 3109 3110 3112 3113 3116 3117
3050 3050 3052 3049 3046 3045 3033 3028 3024 3023 3021 3019 3018 3015 3014 3012 3011 3010 3007 3007 3010 3013 3017 3019 3023 3028 3031 3034 3036 3040 3048 3048 3058 3065 3070 3076 3081 3086 3090 3093 3096 3097 3098 3100 3103 3105 3109 3110 3110
3048 3049 3049 3048 3046 3040 3029 3027 3021 3019 3018 3018 3016 3014 3010 3007 3005 3005 3003 3002 3005 3009 3011 3013 3018 3022 3025 3027 3030 3034 3037 3041 3048 3054 3060 3066 3073 3079 3082 3085 3087 3090 3091 3092 3096 3097 3102 3103 3103
3045 3043 3044 3044 3042 3039 3035 3020 3017 3016 3015 3014 3013 3010 3005 3000 2999 2998 2997 2997 2999 3002 3004 3006 3009 3013 3017 3020 3023 3025 3030 3035 3038 3044 3050 3057 3065 3070 3075 3077 3080 3083 3086 3088 3091 3093 3095 3098 3098
3039 3039 3040 3040 3039 3036 3034 3010 3010 3011 3011 3009 3008 3004 2999 2994 2991 2991 2991 2991 2993 2995 2998 3000 3003 3006 3010 3015 3018 3021 3026 3030 3033 3037 3044 3050 3057 3062 3065 3070 3073 3077 3080 3082 3086 3088 3090 3092 3092